• In Hungary
  • List of Countries
  • For 7 days
  • Water Temperature
  • Satellite Maps
  • Weather Map
  • News
  • Weather Widgets
  • user-avatar
    Login

    Hourly Weather Debrecen

    Today, 27 June, Tuesday

    Time Temperature Precipitation Wind Pressure Humidity
    00:00 +19°C° 0 mm 2 mps 749 mmHg 82%
    01:00 +18°C° 0 mm 2 mps 749 mmHg 84%
    02:00 +19°C° 0 mm 1 mps 749 mmHg 85%
    03:00 +18°C° 0 mm 1 mps 749 mmHg 86%
    04:00 +18°C° 0 mm 1 mps 749 mmHg 87%
    05:00 +20°C° 0 mm 1 mps 749 mmHg 81%
    06:00 +22°C° 0 mm 1 mps 749 mmHg 74%
    07:00 +24°C° 0 mm 1 mps 749 mmHg 68%
    08:00 +26°C° 0 mm 1 mps 749 mmHg 63%
    09:00 +27°C° 0 mm 1 mps 749 mmHg 57%
    10:00 +29°C° 0 mm 1 mps 749 mmHg 52%
    11:00 +30°C° 0 mm 1 mps 749 mmHg 49%
    12:00 +31°C° 0 mm 1 mps 749 mmHg 46%
    13:00 +31°C° 0 mm 1 mps 748 mmHg 43%
    14:00 +31°C° 0 mm 1 mps 748 mmHg 43%
    15:00 +32°C° 0 mm 2 mps 748 mmHg 43%
    16:00 +32°C° 0 mm 2 mps 748 mmHg 43%
    17:00 +30°C° 0 mm 2 mps 747 mmHg 51%
    18:00 +28°C° 0 mm 2 mps 747 mmHg 58%
    19:00 +26°C° 0 mm 2 mps 747 mmHg 65%
    20:00 +25°C° 0 mm 3 mps 747 mmHg 68%
    21:00 +24°C° 0 mm 3 mps 747 mmHg 71%
    22:00 +22°C° 0 mm 3 mps 747 mmHg 74%
    23:00 +22°C° 0 mm 3 mps 747 mmHg 75%

    Tomorrow, 28 June, Wednesday

    Time Temperature Precipitation Wind Pressure Humidity
    00:00 +21°C° 0 mm 3 mps 747 mmHg 77%
    01:00 +21°C° 0 mm 3 mps 747 mmHg 79%
    02:00 +21°C° 0 mm 2 mps 747 mmHg 79%
    03:00 +20°C° 0 mm 2 mps 747 mmHg 79%
    04:00 +20°C° 0 mm 2 mps 747 mmHg 80%
    05:00 +23°C° 0 mm 2 mps 746 mmHg 74%
    06:00 +24°C° 0 mm 3 mps 746 mmHg 69%
    07:00 +26°C° 0 mm 3 mps 746 mmHg 63%
    08:00 +28°C° 0 mm 3 mps 746 mmHg 58%
    09:00 +30°C° 0 mm 4 mps 746 mmHg 52%
    10:00 +33°C° 0 mm 4 mps 746 mmHg 47%
    11:00 +34°C° 0 mm 4 mps 746 mmHg 45%
    12:00 +34°C° 0 mm 5 mps 745 mmHg 42%
    13:00 +35°C° 0 mm 5 mps 745 mmHg 40%
    14:00 +35°C° 0 mm 5 mps 744 mmHg 41%
    15:00 +35°C° 0 mm 5 mps 744 mmHg 42%
    16:00 +35°C° 0 mm 5 mps 743 mmHg 43%
    17:00 +34°C° 0 mm 5 mps 743 mmHg 49%
    18:00 +32°C° 0 mm 4 mps 743 mmHg 54%
    19:00 +29°C° 0 mm 4 mps 743 mmHg 60%
    20:00 +28°C° 0 mm 4 mps 743 mmHg 59%
    21:00 +28°C° 0 mm 4 mps 743 mmHg 58%
    22:00 +27°C° 0 mm 4 mps 743 mmHg 57%
    23:00 +26°C° 0.5 mm 4 mps 743 mmHg 60%

    Day after tomorrow, 29 June, Thursday

    Time Temperature Precipitation Wind Pressure Humidity
    00:00 +26°C° 0.5 mm 4 mps 743 mmHg 64%
    01:00 +25°C° 0.5 mm 4 mps 743 mmHg 67%
    02:00 +23°C° 0.6 mm 4 mps 742 mmHg 70%
    03:00 +22°C° 0.6 mm 4 mps 742 mmHg 74%
    04:00 +22°C° 0.6 mm 5 mps 742 mmHg 77%
    05:00 +23°C° 0.2 mm 6 mps 742 mmHg 72%
    06:00 +26°C° 0.2 mm 7 mps 742 mmHg 67%
    07:00 +27°C° 0.2 mm 8 mps 742 mmHg 63%
    08:00 +29°C° 0 mm 8 mps 742 mmHg 56%
    09:00 +31°C° 0 mm 9 mps 742 mmHg 49%
    10:00 +33°C° 0 mm 10 mps 742 mmHg 43%
    11:00 +33°C° 0 mm 10 mps 742 mmHg 41%
    12:00 +34°C° 0 mm 9 mps 742 mmHg 39%
    13:00 +34°C° 0 mm 9 mps 742 mmHg 38%
    14:00 +34°C° 0 mm 8 mps 742 mmHg 38%
    15:00 +34°C° 0 mm 8 mps 742 mmHg 38%
    16:00 +34°C° 0 mm 7 mps 742 mmHg 39%
    17:00 +32°C° 0 mm 6 mps 742 mmHg 43%
    18:00 +29°C° 0 mm 5 mps 742 mmHg 47%
    19:00 +27°C° 0 mm 4 mps 742 mmHg 51%
    20:00 +26°C° 0 mm 4 mps 743 mmHg 50%
    21:00 +26°C° 0 mm 4 mps 743 mmHg 50%
    22:00 +25°C° 0 mm 4 mps 743 mmHg 50%
    23:00 +23°C° 0 mm 4 mps 744 mmHg 51%

    30 June, Friday

    Time Temperature Precipitation Wind Pressure Humidity
    00:00 +22°C° 0 mm 4 mps 744 mmHg 52%
    01:00 +22°C° 0 mm 4 mps 745 mmHg 53%
    02:00 +21°C° 0 mm 4 mps 745 mmHg 54%
    03:00 +21°C° 0 mm 4 mps 745 mmHg 56%
    04:00 +20°C° 0 mm 4 mps 746 mmHg 58%
    05:00 +21°C° 0 mm 5 mps 746 mmHg 58%
    06:00 +22°C° 0 mm 5 mps 746 mmHg 57%
    07:00 +25°C° 0 mm 5 mps 747 mmHg 56%
    08:00 +26°C° 0 mm 6 mps 747 mmHg 51%
    09:00 +27°C° 0 mm 6 mps 747 mmHg 46%
    10:00 +29°C° 0 mm 7 mps 748 mmHg 41%
    11:00 +30°C° 0 mm 7 mps 748 mmHg 39%
    12:00 +30°C° 0 mm 7 mps 748 mmHg 37%
    13:00 +32°C° 0 mm 7 mps 748 mmHg 34%
    14:00 +32°C° 0 mm 6 mps 748 mmHg 35%
    15:00 +32°C° 0 mm 6 mps 748 mmHg 36%
    16:00 +32°C° 0 mm 5 mps 748 mmHg 37%
    17:00 +30°C° 0 mm 4 mps 748 mmHg 44%
    18:00 +28°C° 0 mm 3 mps 747 mmHg 51%
    19:00 +26°C° 0 mm 2 mps 747 mmHg 58%
    20:00 +25°C° 0.1 mm 2 mps 747 mmHg 62%
    21:00 +24°C° 0.1 mm 2 mps 748 mmHg 67%
    22:00 +23°C° 0.1 mm 2 mps 748 mmHg 71%
    23:00 +21°C° 0.2 mm 2 mps 747 mmHg 73%

    1 July, Saturday

    Time Temperature Precipitation Wind Pressure Humidity
    00:00 +21°C° 0.2 mm 2 mps 747 mmHg 74%
    01:00 +20°C° 0.2 mm 2 mps 747 mmHg 76%
    02:00 +20°C° 0.1 mm 2 mps 747 mmHg 75%
    03:00 +20°C° 0.1 mm 2 mps 747 mmHg 75%
    04:00 +20°C° 0.1 mm 2 mps 747 mmHg 74%
    05:00 +20°C° 0.4 mm 2 mps 747 mmHg 74%
    06:00 +20°C° 0.4 mm 2 mps 747 mmHg 75%
    07:00 +21°C° 0.4 mm 2 mps 747 mmHg 75%
    08:00 +21°C° 1.2 mm 2 mps 748 mmHg 76%
    09:00 +21°C° 1.2 mm 2 mps 748 mmHg 77%
    10:00 +21°C° 1.2 mm 2 mps 748 mmHg 78%
    11:00 +21°C° 0.5 mm 3 mps 748 mmHg 76%
    12:00 +22°C° 0.5 mm 3 mps 748 mmHg 75%
    13:00 +23°C° 0.5 mm 4 mps 748 mmHg 73%
    14:00 +23°C° 0 mm 4 mps 748 mmHg 72%
    15:00 +24°C° 0 mm 3 mps 748 mmHg 70%
    16:00 +24°C° 0 mm 3 mps 748 mmHg 69%
    17:00 +24°C° 0 mm 3 mps 748 mmHg 72%
    18:00 +23°C° 0 mm 2 mps 748 mmHg 75%
    19:00 +21°C° 0 mm 2 mps 748 mmHg 77%
    20:00 +20°C° 0 mm 2 mps 748 mmHg 79%
    21:00 +19°C° 0 mm 2 mps 748 mmHg 80%
    22:00 +18°C° 0 mm 2 mps 748 mmHg 82%
    23:00 +18°C° 0 mm 2 mps 748 mmHg 82%

    2 July, Sunday

    Time Temperature Precipitation Wind Pressure Humidity
    00:00 +18°C° 0 mm 2 mps 748 mmHg 82%
    01:00 +17°C° 0 mm 2 mps 748 mmHg 82%
    02:00 +17°C° 0 mm 2 mps 748 mmHg 81%
    03:00 +16°C° 0 mm 2 mps 748 mmHg 81%
    04:00 +16°C° 0 mm 2 mps 748 mmHg 81%
    05:00 +18°C° 0 mm 2 mps 748 mmHg 74%
    06:00 +20°C° 0 mm 3 mps 749 mmHg 68%
    07:00 +22°C° 0 mm 3 mps 749 mmHg 61%
    08:00 +24°C° 0 mm 3 mps 749 mmHg 56%
    09:00 +25°C° 0 mm 4 mps 749 mmHg 52%
    10:00 +26°C° 0 mm 4 mps 749 mmHg 47%
    11:00 +27°C° 0 mm 5 mps 748 mmHg 46%
    12:00 +28°C° 0 mm 5 mps 748 mmHg 45%
    13:00 +28°C° 0 mm 5 mps 748 mmHg 43%
    14:00 +28°C° 0 mm 5 mps 748 mmHg 44%
    15:00 +28°C° 0 mm 5 mps 748 mmHg 46%
    16:00 +27°C° 0 mm 5 mps 748 mmHg 47%
    17:00 +26°C° 0 mm 4 mps 748 mmHg 53%
    18:00 +23°C° 0 mm 4 mps 748 mmHg 59%
    19:00 +21°C° 0 mm 3 mps 748 mmHg 66%
    20:00 +20°C° 0 mm 3 mps 748 mmHg 68%
    21:00 +19°C° 0 mm 3 mps 748 mmHg 71%
    22:00 +18°C° 0 mm 3 mps 748 mmHg 74%
    23:00 +18°C° 0 mm 4 mps 748 mmHg 72%
    Show more